Regional Weather Roundup
Issued by NWS

Home | Current Version | Previous Version | Text Only | Print | Product List | Glossary Off
Versions: 1 2 3 4 5 6 7 8 9 10 11 12 13 14 15 16 17 18 19 20 21 22 23 24 25 26 27 28 29 30 31 32 33 34 35 36 37 38 39 40 41 42 43 44 45 46 47 48 49 50

000
ASUS43 KOAX 041602
RWRNE

WEATHER ROUNDUP FOR NEBRASKA
NATIONAL WEATHER SERVICE OMAHA NE
1000 AM CST WED MAR 04 2015

NOTES: SATELLITE DATA IS BEING USED TO AUGMENT CLOUD COVER ABOVE
       12000 FEET.
       "FAIR" INDICATES FEW OR NO CLOUDS BELOW 12,000 FEET WITH NO
       SIGNIFICANT WEATHER AND/OR OBSTRUCTIONS TO VISIBILITY.

  * THESE STATIONS DO NOT REPORT WEATHER SUCH AS RAIN...SNOW OR FOG.

NEZ001>004-019>022-054>056-041700-
NEBRASKA PANHANDLE

CITY           SKY/WX    TMP DP  RH WIND       PRES   REMARKS
SCOTTSBLUFF    SUNNY     17   5  59 NW8       30.20R WCI   7
ALLIANCE       SUNNY     16   2  54 W16       30.18R WCI   1
CHADRON        SUNNY     10  -3  55 NW13      30.24R WCI  -5
SIDNEY         MOSUNNY   18   3  52 W13       30.19R WCI   5
$$

NEZ057>060-069>072-079>082-041700-
SOUTHWEST NEBRASKA

CITY           SKY/WX    TMP DP  RH WIND       PRES   REMARKS
NORTH PLATTE   SUNNY     19   7  59 NW9       30.26R WCI   8
IMPERIAL         N/A     17   7  64 W12       30.25R WCI   4
MCCOOK         PTSUNNY   21  12  68 W6        30.29R WCI  13
$$

NEZ005>010-023>029-035>040-094-041700-
NORTH CENTRAL NEBRASKA

CITY           SKY/WX    TMP DP  RH WIND       PRES   REMARKS
VALENTINE      SUNNY     15   1  53 NW13      30.25R WCI   1
BROKEN BOW     SUNNY     20   8  60 NW9       30.25R WCI   9
ORD            SUNNY     22   1  40 NW17      30.27R WCI   8
$$

NEZ041-046>049-061>064-073>077-083>087-041700-
SOUTH CENTRAL NEBRASKA

CITY           SKY/WX    TMP DP  RH WIND       PRES   REMARKS
GRAND ISLAND   SUNNY     21   7  54 NW10      30.31R WCI  10
HASTINGS       MOSUNNY   21   9  59 NW14      30.29R WCI   8
KEARNEY *      MOSUNNY   18   9  68 NW9       30.30R WCI   6
$$

NEZ011>018-030>034-042>045-041700-
NORTHEAST NEBRASKA

CITY           SKY/WX    TMP DP  RH WIND       PRES   REMARKS
COLUMBUS *     SUNNY     23   3  42 W15       30.30R WCI  10
TEKAMAH        SUNNY     26   7  44 W14       30.29S WCI  14
$$

NEZ050>053-065>068-078-088>093-041700-
SOUTHEAST NEBRASKA

CITY           SKY/WX    TMP DP  RH WIND       PRES   REMARKS
LINCOLN        SUNNY     24   8  50 NW12      30.32S WCI  13
OMAHA EPPLEY   MOSUNNY   24   7  48 W10       30.31S WCI  14
FALLS CITY     MOSUNNY   22  12  65 VRB6      30.34R WCI  14
$$

NEZ044-045-051>053-067-041700-
OMAHA AREA

CITY           SKY/WX    TMP DP  RH WIND       PRES   REMARKS
OMAHA EPPLEY   MOSUNNY   24   7  48 W10       30.31S WCI  14
OFFUTT AFB     SUNNY     22   8  54 W5        30.30S WCI  16
$$


USA.gov is the U.S. government's official web portal to all federal, state and local government web resources and services.